Wind_Speed
18 18 18 18 17 17 18 17 17 16 17 17 17 17 16 17 17 17 16 18 18 19 19 19 20 21 21 21 21 21 21 20 20 20 19 20 20 20 19 18 18 18 18 18
19 18 18 18 18 18 18 18 17 17 17 16 16 15 16 16 16 16 15 16 17 18 18 19 20 20 20 20 19 19 19 19 19 19 19 18 18 17 17 17 17 17 17 17
20 19 19 18 17 18 17 17 17 16 15 15 15 15 15 14 14 15 15 16 16 17 17 18 18 19 19 20 19 18 18 18 18 18 18 17 16 16 16 16 16 15 16 16
20 20 20 16 16 16 16 16 16 16 15 14 14 14 13 13 14 15 15 15 16 17 17 17 18 18 18 19 17 16 16 17 17 17 17 16 16 16 15 15 15 15 15 15
20 20 19 15 14 14 15 15 14 14 13 12 12 12 12 13 14 15 15 14 15 16 16 17 17 17 17 17 16 16 16 16 16 16 15 16 15 15 15 14 14 14 13 13
19 19 17 14 13 13 14 13 12 13 12 11 11 11 12 12 13 13 12 13 14 15 16 16 16 17 16 16 15 15 15 15 15 15 15 14 14 14 14 14 14 13 13 12
18 17 15 14 13 13 13 12 12 11 11 10 10 10 11 11 12 11 11 12 13 14 15 15 16 16 15 15 14 14 15 15 16 15 15 14 14 13 13 13 14 13 13 13
16 16 14 13 12 11 12 11 10 11 10 9 9 9 9 10 10 10 10 11 13 13 14 15 15 14 14 14 14 14 14 15 15 15 14 14 13 13 13 13 14 14 13 13
15 14 13 12 11 11 11 11 10 9 8 8 8 8 9 9 8 9 9 11 12 13 13 14 14 14 14 14 14 14 14 14 14 14 14 14 14 14 14 14 14 14 14 14
15 13 13 12 11 11 11 9 8 6 6 7 6 6 7 7 7 7 8 10 11 11 12 13 13 14 14 14 14 14 14 13 14 14 14 14 14 14 15 15 14 14 14 14
14 13 12 11 11 11 10 9 8 6 5 5 4 5 6 6 6 7 8 9 10 11 12 12 13 14 14 14 14 13 13 13 13 14 14 14 14 15 15 15 15 15 14 15
13 12 12 11 11 11 9 9 8 7 6 4 4 4 4 4 5 6 7 8 10 11 11 12 13 14 14 14 13 12 13 13 13 14 15 15 16 16 16 16 15 15 15 16
13 13 12 11 11 10 10 9 8 7 5 4 3 3 2 3 3 5 7 8 9 10 10 11 13 14 14 13 13 13 13 13 13 14 15 16 16 16 17 17 16 16 16 16
14 13 12 11 10 10 10 9 8 6 5 4 3 2 2 2 3 5 7 8 9 9 10 11 12 13 13 14 14 14 14 14 14 14 15 16 16 17 17 17 17 17 17 17
13 13 12 12 11 10 9 7 6 6 5 5 3 1 1 1 3 5 6 7 8 9 10 11 11 12 13 14 14 14 15 15 15 15 16 17 17 17 18 18 18 17 17 17
13 13 13 12 10 10 9 7 6 6 5 5 3 1 1 1 2 4 5 6 7 9 9 10 10 11 12 13 14 15 15 16 16 17 17 18 18 18 18 18 18 18 17 18
12 13 12 11 10 9 9 8 8 7 6 5 4 3 2 2 2 3 5 6 7 8 9 10 10 11 12 13 14 15 15 16 17 18 18 19 19 18 18 18 18 18 18 19
12 13 12 11 11 10 9 9 9 7 6 6 4 3 2 2 2 3 5 5 7 8 9 9 10 11 13 14 14 15 16 17 18 19 19 20 20 19 19 19 19 19 20 20
12 13 12 12 12 11 10 10 9 8 7 6 5 3 3 2 3 3 4 5 7 8 9 10 11 12 13 15 16 17 17 18 19 19 20 21 21 20 20 20 21 21 21 21
13 12 12 12 12 11 10 10 9 9 8 7 5 5 4 3 3 3 4 5 6 8 9 10 11 12 14 15 17 18 18 19 20 20 21 21 22 22 22 22 23 22 22 22
13 13 13 13 13 12 11 11 11 10 9 8 7 5 4 3 3 3 4 5 7 8 8 9 11 12 14 16 17 19 20 20 21 22 22 22 22 23 24 24 23 23 23 23
13 14 14 14 14 13 13 12 12 11 10 9 7 5 4 3 3 3 4 5 6 7 8 10 11 13 15 16 18 20 21 21 22 23 23 23 23 24 24 24 24 24 23 23
14 15 15 15 15 15 14 13 13 12 10 9 7 5 3 2 2 3 4 5 6 8 9 10 12 13 15 17 19 20 22 22 23 24 24 24 25 25 24 24 24 24 24 25
15 16 16 17 17 16 15 14 13 12 10 9 6 5 3 2 2 3 4 5 7 8 9 11 12 14 16 18 20 21 22 23 24 25 25 25 25 25 25 25 25 25 26 27
16 17 18 18 18 17 16 15 13 11 10 8 6 4 3 2 2 3 4 5 7 8 10 11 13 15 17 19 20 22 23 25 25 26 26 26 25 25 26 26 26 27 27 28
17 17 18 19 18 17 16 15 13 11 10 8 6 5 3 2 2 3 4 6 7 9 11 12 14 16 17 19 21 23 24 25 26 26 27 27 27 27 27 27 28 29 29 30
18 18 19 19 18 17 16 14 13 11 10 8 6 5 3 2 1 3 4 6 8 10 12 13 14 16 18 20 21 23 25 25 26 27 27 28 28 28 28 28 29 30 32 33
Wind_Direction
271 270 270 274 276 277 278 282 287 293 296 298 298 299 300 299 302 307 307 311 314 315 315 318 317 316 316 316 314 314 314 312 310 309 309 308 307 305 301 298 299 300 303 301
273 273 273 274 276 276 279 282 288 291 295 297 296 297 300 297 300 309 314 318 319 319 319 321 319 319 320 321 321 320 320 319 316 314 313 313 312 309 305 303 304 303 302 304
276 276 275 274 278 278 278 282 287 290 293 293 291 296 301 299 300 307 313 319 319 322 323 324 323 323 324 325 324 324 324 324 323 321 321 319 317 315 313 309 308 306 307 306
275 276 274 277 278 278 279 280 282 285 286 286 290 297 298 302 304 308 314 320 322 326 327 327 328 329 331 331 329 329 329 328 327 327 328 326 323 320 319 317 315 314 312 311
273 275 277 278 278 278 280 279 281 283 286 286 292 301 301 303 306 310 315 320 324 328 331 331 333 335 336 336 337 335 334 335 335 334 334 334 331 330 327 324 323 321 318 316
274 275 278 281 283 282 280 279 281 282 285 289 292 299 300 300 306 317 321 326 330 333 336 337 339 339 339 339 341 341 342 344 343 342 340 339 336 335 333 332 333 329 325 323
272 273 273 277 281 281 280 281 280 280 281 286 288 293 300 305 312 320 328 333 337 339 341 342 342 340 341 343 344 345 346 349 351 351 349 346 344 342 340 337 338 336 331 329
267 269 271 274 278 278 274 277 280 282 282 283 290 296 300 310 317 328 336 341 341 341 342 345 346 346 346 346 347 348 349 352 354 355 356 356 354 350 348 345 341 338 334 331
265 265 263 264 268 268 268 270 273 280 282 284 295 301 307 318 326 335 341 344 344 346 349 351 353 354 354 355 353 350 350 351 355 358 358 360 358 355 353 350 347 345 340 336
260 259 258 256 253 255 260 261 266 275 280 293 303 312 320 331 337 341 344 346 349 353 355 359 359 358 357 356 356 356 356 356 357 0 2 1 0 359 358 356 353 348 346 344
254 253 250 246 246 246 245 250 257 258 269 284 303 312 322 332 336 341 346 350 354 357 358 360 2 2 1 0 0 1 2 4 5 6 5 3 2 0 358 357 356 353 352 350
245 245 244 239 239 237 239 247 253 258 263 275 294 304 319 333 344 351 355 356 359 1 2 4 5 3 3 4 4 3 4 4 4 4 3 2 1 359 357 356 355 354 353 351
238 234 233 233 233 236 239 243 243 242 240 255 284 303 341 359 2 5 4 3 4 5 6 7 7 7 8 8 6 5 4 3 1 359 359 360 359 359 358 356 353 351 351 349
230 228 225 224 228 229 232 233 230 229 231 239 259 307 355 4 16 14 11 10 10 9 9 9 9 10 12 11 9 6 5 3 1 359 358 357 355 354 353 351 351 349 347 347
223 224 222 220 220 218 218 217 220 219 223 230 237 280 327 3 21 17 16 15 14 12 11 10 10 11 13 12 10 8 7 4 2 359 357 354 352 351 351 350 348 348 348 347
217 214 214 215 214 208 207 205 207 209 216 215 214 186 146 101 37 24 19 16 14 14 14 12 12 13 14 12 11 9 7 4 1 359 357 354 352 352 352 351 349 349 349 349
210 208 208 209 203 201 199 194 196 198 198 196 186 161 149 126 57 27 19 16 16 16 14 14 15 14 13 11 9 8 4 1 359 357 355 353 351 351 351 351 351 348 347 345
210 204 202 200 197 194 191 189 189 190 190 189 178 160 141 118 61 31 22 18 17 16 15 16 15 14 12 8 6 3 360 357 356 354 354 354 351 349 349 350 348 347 345 344
201 198 196 194 192 189 185 181 183 185 186 183 169 159 148 115 70 43 30 23 18 17 18 18 17 15 12 9 5 1 359 359 358 356 354 352 351 350 348 346 346 344 343 341
198 196 192 189 188 182 180 178 176 180 184 180 165 152 140 114 78 48 32 24 19 19 19 18 15 12 9 7 4 2 360 359 358 355 352 350 348 347 347 345 343 341 340 340
193 192 190 189 186 179 178 178 175 176 175 170 162 151 139 116 82 50 32 24 22 21 19 16 13 9 7 5 3 0 359 357 355 353 351 348 347 346 345 344 343 342 340 339
192 191 189 186 183 179 176 172 170 168 167 165 159 154 143 118 80 49 31 24 20 19 17 15 12 9 6 3 1 359 358 356 353 351 350 348 347 346 346 345 344 343 342 341
189 187 185 183 181 179 175 172 170 168 167 164 159 157 148 118 78 46 30 22 17 15 14 11 7 5 3 0 358 357 356 355 354 353 351 349 347 347 347 345 345 344 342 341
187 184 182 179 177 177 175 170 168 169 167 164 162 160 153 129 84 45 27 18 16 14 11 6 4 2 360 358 357 356 356 355 354 352 350 349 348 347 346 344 344 343 342 341
182 180 180 176 175 173 172 172 173 172 168 166 166 163 155 130 78 35 21 19 17 12 7 3 1 360 358 357 356 356 355 354 352 351 351 350 349 347 346 345 344 343 343 341
178 178 178 175 173 172 172 175 177 174 170 168 167 164 154 131 76 37 25 17 10 4 1 359 359 359 358 356 354 353 353 352 351 351 351 351 349 347 346 345 345 344 343 341
176 178 179 175 173 173 173 175 176 174 172 168 166 163 157 137 64 28 15 6 2 360 359 358 357 356 356 354 352 351 352 352 352 352 351 350 349 348 346 344 342 341 341 341
Height
5812 5812 5811 5811 5811 5811 5810 5808 5807 5806 5805 5803 5801 5800 5798 5796 5793 5791 5789 5787 5784 5781 5778 5775 5771 5768 5764 5760 5756 5752 5749 5745 5742 5738 5735 5732 5729 5726 5724 5721 5719 5718 5715 5712
5806 5807 5806 5806 5806 5806 5805 5804 5802 5801 5800 5799 5797 5796 5794 5791 5790 5787 5785 5783 5780 5777 5774 5770 5767 5764 5760 5756 5752 5748 5745 5741 5737 5734 5730 5727 5724 5721 5719 5717 5715 5713 5710 5707
5801 5800 5800 5800 5801 5800 5800 5799 5798 5796 5796 5794 5792 5791 5789 5787 5786 5784 5782 5780 5777 5773 5770 5767 5763 5760 5756 5752 5748 5744 5741 5737 5733 5730 5726 5723 5721 5718 5715 5713 5710 5708 5706 5703
5795 5795 5794 5798 5796 5795 5794 5794 5793 5791 5791 5789 5788 5787 5785 5784 5782 5781 5778 5776 5773 5770 5766 5763 5760 5756 5753 5749 5745 5741 5738 5734 5731 5727 5723 5720 5717 5714 5712 5709 5707 5704 5702 5699
5789 5788 5789 5791 5790 5789 5789 5789 5788 5787 5786 5785 5784 5783 5782 5780 5779 5777 5775 5772 5770 5766 5763 5760 5757 5753 5749 5746 5742 5739 5735 5732 5728 5724 5721 5717 5714 5711 5709 5706 5703 5701 5698 5696
5783 5783 5783 5787 5786 5785 5785 5785 5785 5783 5782 5782 5781 5780 5779 5777 5776 5774 5772 5769 5767 5764 5760 5757 5754 5750 5747 5744 5740 5737 5734 5730 5726 5722 5719 5715 5712 5709 5707 5704 5701 5698 5696 5693
5778 5778 5779 5781 5781 5781 5781 5782 5781 5779 5779 5779 5778 5778 5776 5774 5773 5771 5769 5767 5764 5762 5759 5755 5752 5748 5745 5742 5739 5735 5732 5728 5725 5721 5717 5714 5711 5708 5705 5702 5699 5697 5694 5691
5773 5774 5777 5776 5776 5777 5777 5776 5776 5776 5776 5776 5775 5774 5773 5772 5770 5769 5767 5765 5762 5760 5757 5754 5750 5747 5744 5740 5737 5734 5731 5727 5723 5720 5716 5713 5710 5707 5704 5701 5699 5696 5693 5690
5769 5771 5771 5771 5772 5772 5772 5773 5773 5773 5773 5773 5772 5772 5771 5769 5768 5767 5765 5763 5761 5758 5756 5753 5749 5746 5743 5739 5736 5733 5730 5726 5723 5719 5716 5713 5710 5707 5704 5701 5697 5694 5691 5688
5763 5764 5765 5766 5767 5767 5768 5769 5769 5770 5770 5770 5770 5769 5768 5767 5766 5765 5764 5762 5760 5757 5755 5752 5749 5745 5742 5739 5735 5732 5729 5726 5722 5719 5716 5713 5710 5707 5704 5700 5697 5694 5690 5687
5758 5760 5761 5762 5763 5764 5764 5765 5766 5767 5768 5768 5768 5767 5767 5766 5765 5764 5763 5761 5759 5756 5754 5751 5748 5745 5741 5738 5735 5732 5729 5725 5722 5719 5716 5713 5710 5707 5704 5700 5696 5693 5689 5686
5754 5756 5757 5759 5759 5760 5761 5762 5763 5764 5765 5766 5766 5766 5765 5764 5764 5763 5762 5760 5758 5755 5753 5750 5747 5744 5741 5738 5735 5732 5729 5726 5723 5720 5717 5713 5710 5707 5703 5700 5696 5692 5689 5685
5749 5750 5752 5754 5756 5756 5758 5759 5760 5762 5763 5764 5764 5764 5763 5763 5763 5762 5760 5759 5757 5755 5753 5750 5747 5744 5741 5738 5735 5732 5729 5726 5723 5720 5716 5713 5710 5706 5703 5699 5695 5691 5688 5684
5744 5746 5747 5750 5752 5753 5754 5756 5757 5759 5760 5761 5762 5762 5762 5762 5761 5761 5759 5758 5756 5755 5752 5750 5747 5744 5741 5738 5735 5732 5729 5726 5722 5719 5716 5713 5709 5706 5702 5698 5694 5690 5687 5683
5740 5742 5744 5746 5748 5750 5751 5753 5755 5756 5758 5759 5760 5761 5761 5761 5760 5760 5759 5757 5756 5754 5752 5750 5747 5744 5741 5738 5735 5732 5729 5726 5722 5719 5715 5712 5708 5705 5700 5697 5693 5689 5685 5681
5736 5738 5741 5743 5745 5747 5748 5750 5752 5754 5755 5757 5758 5759 5759 5760 5760 5759 5758 5757 5756 5754 5752 5749 5747 5745 5742 5739 5735 5732 5729 5726 5722 5719 5715 5711 5707 5703 5699 5695 5692 5688 5684 5680
5733 5736 5738 5740 5742 5744 5746 5748 5750 5752 5754 5755 5757 5758 5758 5759 5759 5758 5757 5756 5755 5753 5751 5749 5747 5745 5742 5739 5736 5733 5729 5726 5722 5718 5714 5711 5706 5702 5698 5694 5690 5686 5682 5678
5731 5733 5735 5737 5740 5741 5744 5746 5748 5750 5752 5754 5756 5757 5758 5758 5757 5757 5756 5756 5754 5753 5751 5749 5747 5744 5742 5739 5736 5733 5729 5726 5722 5718 5714 5709 5705 5701 5697 5692 5688 5684 5680 5676
5727 5730 5732 5734 5737 5739 5742 5744 5747 5749 5751 5753 5755 5756 5757 5757 5757 5756 5756 5755 5754 5752 5751 5749 5747 5744 5742 5739 5736 5732 5728 5725 5721 5717 5713 5708 5704 5699 5695 5691 5686 5682 5678 5674
5725 5727 5729 5732 5735 5738 5741 5743 5745 5748 5750 5752 5754 5755 5756 5756 5756 5756 5755 5755 5754 5752 5751 5749 5747 5744 5742 5739 5735 5731 5728 5724 5720 5716 5711 5707 5702 5697 5693 5688 5684 5680 5675 5671
5723 5725 5728 5731 5734 5736 5739 5742 5744 5747 5749 5752 5753 5755 5755 5756 5756 5755 5755 5754 5753 5752 5750 5748 5746 5744 5741 5738 5735 5731 5727 5723 5718 5714 5709 5705 5700 5695 5691 5686 5681 5677 5672 5668
5721 5723 5726 5729 5732 5735 5738 5741 5744 5746 5749 5751 5753 5754 5755 5755 5755 5755 5755 5754 5753 5752 5750 5748 5746 5743 5740 5737 5734 5730 5726 5722 5717 5712 5708 5703 5698 5693 5688 5684 5679 5674 5669 5665
5719 5722 5725 5728 5731 5734 5738 5741 5744 5746 5749 5751 5752 5754 5754 5755 5755 5755 5754 5754 5752 5751 5750 5748 5745 5743 5740 5737 5733 5729 5725 5720 5715 5711 5706 5701 5696 5691 5686 5681 5677 5672 5667 5662
5717 5720 5724 5727 5730 5734 5737 5740 5743 5746 5748 5750 5752 5753 5754 5754 5754 5754 5754 5753 5752 5750 5749 5747 5745 5742 5739 5736 5732 5728 5723 5718 5713 5708 5703 5698 5693 5688 5684 5679 5674 5669 5664 5659
5716 5719 5722 5726 5730 5734 5737 5740 5743 5745 5747 5749 5751 5752 5753 5753 5753 5753 5753 5752 5751 5750 5748 5746 5744 5741 5738 5734 5730 5726 5721 5717 5712 5706 5701 5696 5691 5686 5681 5676 5671 5666 5661 5656
5715 5718 5722 5726 5730 5733 5736 5739 5742 5745 5747 5749 5750 5751 5752 5752 5753 5753 5752 5752 5751 5749 5747 5745 5743 5740 5736 5733 5729 5724 5720 5715 5710 5704 5699 5694 5689 5684 5679 5674 5668 5663 5658 5652
5714 5718 5722 5725 5729 5732 5735 5739 5742 5744 5746 5748 5749 5750 5751 5752 5752 5752 5751 5751 5750 5748 5746 5744 5741 5738 5735 5731 5727 5723 5718 5713 5708 5703 5697 5692 5687 5681 5676 5671 5666 5660 5654 5648